Regional Weather Roundup
Issued by NWS Green Bay, WI

Home | Current Version | Previous Version | Graphics & Text | Print | Product List | Glossary Off
Versions: 1 2 3 4 5 6 7 8 9 10 11 12 13 14 15 16 17 18 19 20 21 22 23 24 25 26 27 28 29 30 31 32 33 34 35 36 37 38 39 40 41 42 43 44 45 46 47 48 49 50

000
ASUS43 KGRB 040000
RWRGRB

NORTH-CENTRAL AND NORTHEAST WISCONSIN REGIONAL WEATHER ROUNDUP
NATIONAL WEATHER SERVICE GREEN BAY WI
700 PM CDT THU SEP 03 2015

WIZ005-009-010>012-018-019-040100-
NORTH CENTRAL WISCONSIN

CITY           SKY/WX    TMP DP  RH WIND       PRES   REMARKS
IRONWOOD       CLEAR     73  64  73 E7        29.93S
MANITOWISH WTR NOT AVBL
ARBOR VITAE    NOT AVBL
EAGLE RIVER    NOT AVBL
LAND O LAKES   NOT AVBL
RHINELANDER    CLEAR     73  64  73 E5        29.99S
PHILLIPS       CLEAR     77  65  66 E3        29.96S
ANTIGO         NOT AVBL
TOMAHAWK       NOT AVBL
MERRILL        NOT AVBL
$$

WIZ013-073-040100-
NORTHEAST WISCONSIN

CITY           SKY/WX    TMP DP  RH WIND       PRES   REMARKS
IRON MOUNTAIN  MOCLDY    77  65  66 NE3       29.95S
MARINETTE      CLEAR     72  63  73 E5        29.93S
$$

WIZ017-030-035>037-045-040100-
CENTRAL WISCONSIN

CITY           SKY/WX    TMP DP  RH WIND       PRES   REMARKS
MEDFORD        NOT AVBL
WAUSAU         CLEAR     74  65  73 SE6       29.95S
MOSINEE        NOT AVBL
MARSHFIELD     CLEAR     75  63  66 E9        29.95F
WISC RAPIDS    CLEAR     75  64  68 E9        29.95F
STEVENS POINT  NOT AVBL
WAUPACA        NOT AVBL
SHAWANO        NOT AVBL
CLINTONVILLE   MOCLDY    75  64  69 CALM      29.94F
WAUTOMA        NOT AVBL
$$

WIZ038-039-048-051-040100-
FOX VALLEY

CITY           SKY/WX    TMP DP  RH WIND       PRES   REMARKS
NWS GREEN BAY  CLEAR     73  66  78 NE5       29.94S
APPLETON       MOCLDY    72  63  73 NW5       29.94S
OSHKOSH        PTCLDY    72  65  78 N6        29.94S
FOND DU LAC    PTCLDY    73  66  78 N9        29.94S
$$

WIZ022-050-052-040100-
EAST CENTRAL WISCONSIN

CITY           SKY/WX    TMP DP  RH WIND       PRES   REMARKS
EPHRAIM        FAIR      68  65  89 N5        29.93S
STURGEON BAY   CLEAR     70  63  78 N6        29.96S
MANITOWOC      NOT AVBL
SHEBOYGAN      MOCLDY    66  64  93 E8        29.94R
$$

LMZ563-521-522-541>543-040100-
LAKESHORE

STATION/POSITION TIME  TEMP    WIND        PRES    VSBY  WAVE
                       AIR SEA DIR/SP/G                  HT/PER
                 (UTC) (F)     (DEG/KT/KT) (MB)    (MI)  (FT/S)
SHEBOYGAN LKSHOR 2300   60      10/  8/  9 1013.8R
KEWAUNEE LKSHORE 2300   65      20/  5/  9 1012.8R
ALGOMA MARINA    2329           60/  8/ 10   N/A
NORTHPORT PIER   2300   69     360/  5/  6 1013.5S
N MID LAKE BUOY  2250   68 67  340/ 10/ 12 1013.0F         1/ 3
S GREEN BAY BUOY 2330   69 67   40/  8/ 10 1015.1S
SISTER BAY LKSHO 2311   71     360/  7/  8   N/A
CHAMBERS ISLAND  2300   70     360/  3/  4 1013.9S
MENOMINEE LKSHOR 2300   66      20/  9/ 10 1012.7S
$$


USA.gov is the U.S. government's official web portal to all federal, state and local government web resources and services.